• In Germany
  • List of Countries
  • For 7 days
  • Water Temperature
  • Satellite Maps
  • Weather Map
  • Weather Widgets
  • user-avatar
    Login

    Hourly Weather Oran

    Today, 23 July, Sunday

    Time Temperature Precipitation Wind Pressure Humidity
    00:00 +30°C° 0 mm 2 mps 751 mmHg 44%
    01:00 +29°C° 0 mm 2 mps 751 mmHg 46%
    02:00 +29°C° 0 mm 1 mps 751 mmHg 48%
    03:00 +28°C° 0 mm 1 mps 751 mmHg 50%
    04:00 +28°C° 0 mm 1 mps 751 mmHg 50%
    05:00 +28°C° 0 mm 1 mps 751 mmHg 50%
    06:00 +28°C° 0 mm 1 mps 752 mmHg 51%
    07:00 +29°C° 0 mm 1 mps 752 mmHg 46%
    08:00 +31°C° 0 mm 1 mps 752 mmHg 41%
    09:00 +32°C° 0 mm 1 mps 752 mmHg 36%
    10:00 +34°C° 0 mm 2 mps 752 mmHg 34%
    11:00 +35°C° 0 mm 3 mps 752 mmHg 32%
    12:00 +37°C° 0 mm 4 mps 752 mmHg 30%
    13:00 +36°C° 0 mm 4 mps 752 mmHg 30%
    14:00 +36°C° 0 mm 3 mps 752 mmHg 30%
    15:00 +36°C° 0 mm 3 mps 752 mmHg 31%
    16:00 +36°C° 0 mm 3 mps 752 mmHg 32%
    17:00 +35°C° 0 mm 2 mps 752 mmHg 34%
    18:00 +35°C° 0 mm 2 mps 752 mmHg 35%
    19:00 +33°C° 0 mm 1 mps 752 mmHg 37%
    20:00 +33°C° 0 mm 1 mps 752 mmHg 38%
    21:00 +33°C° 0 mm 1 mps 753 mmHg 39%
    22:00 +32°C° 0 mm 1 mps 753 mmHg 41%
    23:00 +31°C° 0 mm 1 mps 753 mmHg 43%

    Tomorrow, 24 July, Monday

    Time Temperature Precipitation Wind Pressure Humidity
    00:00 +31°C° 0 mm 2 mps 753 mmHg 45%
    01:00 +30°C° 0 mm 1 mps 752 mmHg 46%
    02:00 +30°C° 0 mm 1 mps 752 mmHg 48%
    03:00 +27°C° 0 mm 0 mps 752 mmHg 50%
    04:00 +29°C° 0 mm 1 mps 752 mmHg 51%
    05:00 +29°C° 0 mm 1 mps 752 mmHg 51%
    06:00 +29°C° 0 mm 1 mps 752 mmHg 51%
    07:00 +31°C° 0 mm 1 mps 752 mmHg 45%
    08:00 +32°C° 0 mm 1 mps 752 mmHg 38%
    09:00 +34°C° 0 mm 1 mps 752 mmHg 32%
    10:00 +35°C° 0 mm 1 mps 752 mmHg 28%
    11:00 +38°C° 0 mm 2 mps 752 mmHg 25%
    12:00 +39°C° 0 mm 3 mps 752 mmHg 22%
    13:00 +39°C° 0 mm 3 mps 751 mmHg 22%
    14:00 +39°C° 0 mm 3 mps 751 mmHg 22%
    15:00 +40°C° 0 mm 4 mps 750 mmHg 22%
    16:00 +38°C° 0 mm 3 mps 750 mmHg 23%
    17:00 +37°C° 0 mm 3 mps 750 mmHg 24%
    18:00 +36°C° 0 mm 3 mps 750 mmHg 25%
    19:00 +36°C° 0 mm 3 mps 751 mmHg 28%
    20:00 +35°C° 0 mm 2 mps 751 mmHg 31%
    21:00 +34°C° 0 mm 2 mps 751 mmHg 34%
    22:00 +32°C° 0 mm 2 mps 751 mmHg 37%
    23:00 +31°C° 0 mm 2 mps 751 mmHg 39%

    Day after tomorrow, 25 July, Tuesday

    Time Temperature Precipitation Wind Pressure Humidity
    00:00 +31°C° 0 mm 2 mps 751 mmHg 42%
    01:00 +30°C° 0 mm 2 mps 750 mmHg 47%
    02:00 +29°C° 0 mm 2 mps 750 mmHg 51%
    03:00 +28°C° 0 mm 2 mps 750 mmHg 55%
    04:00 +28°C° 0 mm 2 mps 750 mmHg 56%
    05:00 +28°C° 0 mm 2 mps 750 mmHg 58%
    06:00 +28°C° 0 mm 2 mps 750 mmHg 59%
    07:00 +30°C° 0 mm 2 mps 750 mmHg 51%
    08:00 +31°C° 0 mm 2 mps 750 mmHg 43%
    09:00 +34°C° 0 mm 2 mps 750 mmHg 36%
    10:00 +35°C° 0 mm 3 mps 750 mmHg 33%
    11:00 +36°C° 0 mm 3 mps 750 mmHg 30%
    12:00 +37°C° 0 mm 4 mps 749 mmHg 27%
    13:00 +37°C° 0 mm 4 mps 749 mmHg 27%
    14:00 +37°C° 0 mm 4 mps 749 mmHg 28%
    15:00 +37°C° 0 mm 4 mps 748 mmHg 28%
    16:00 +36°C° 0 mm 4 mps 748 mmHg 30%
    17:00 +36°C° 0 mm 4 mps 748 mmHg 32%
    18:00 +35°C° 0 mm 3 mps 748 mmHg 34%
    19:00 +34°C° 0 mm 3 mps 748 mmHg 38%
    20:00 +33°C° 0 mm 3 mps 749 mmHg 43%
    21:00 +31°C° 0 mm 3 mps 749 mmHg 47%
    22:00 +30°C° 0 mm 3 mps 749 mmHg 51%
    23:00 +29°C° 0 mm 2 mps 749 mmHg 54%

    26 July, Wednesday

    Time Temperature Precipitation Wind Pressure Humidity
    00:00 +29°C° 0 mm 2 mps 749 mmHg 58%
    01:00 +28°C° 0 mm 2 mps 749 mmHg 61%
    02:00 +28°C° 0 mm 2 mps 749 mmHg 64%
    03:00 +27°C° 0 mm 2 mps 748 mmHg 67%
    04:00 +27°C° 0 mm 2 mps 748 mmHg 68%
    05:00 +27°C° 0 mm 1 mps 749 mmHg 69%
    06:00 +27°C° 0 mm 1 mps 749 mmHg 70%
    07:00 +28°C° 0 mm 2 mps 749 mmHg 62%
    08:00 +29°C° 0 mm 2 mps 749 mmHg 54%
    09:00 +30°C° 0 mm 2 mps 749 mmHg 46%
    10:00 +33°C° 0 mm 3 mps 749 mmHg 43%
    11:00 +34°C° 0 mm 4 mps 749 mmHg 39%
    12:00 +35°C° 0 mm 4 mps 749 mmHg 36%
    13:00 +35°C° 0 mm 4 mps 749 mmHg 36%
    14:00 +35°C° 0 mm 5 mps 749 mmHg 35%
    15:00 +36°C° 0 mm 5 mps 749 mmHg 35%
    16:00 +35°C° 0 mm 4 mps 749 mmHg 35%
    17:00 +35°C° 0 mm 4 mps 749 mmHg 36%
    18:00 +34°C° 0 mm 4 mps 749 mmHg 36%
    19:00 +34°C° 0 mm 4 mps 749 mmHg 38%
    20:00 +33°C° 0 mm 4 mps 750 mmHg 40%
    21:00 +31°C° 0 mm 3 mps 750 mmHg 42%
    22:00 +31°C° 0 mm 3 mps 750 mmHg 42%
    23:00 +30°C° 0 mm 3 mps 750 mmHg 43%

    27 July, Thursday

    Time Temperature Precipitation Wind Pressure Humidity
    00:00 +30°C° 0 mm 3 mps 750 mmHg 43%
    01:00 +30°C° 0 mm 3 mps 750 mmHg 44%
    02:00 +29°C° 0 mm 2 mps 750 mmHg 46%
    03:00 +29°C° 0 mm 2 mps 749 mmHg 47%
    04:00 +29°C° 0 mm 3 mps 750 mmHg 47%
    05:00 +29°C° 0 mm 3 mps 750 mmHg 47%
    06:00 +29°C° 0 mm 3 mps 750 mmHg 47%
    07:00 +30°C° 0 mm 3 mps 750 mmHg 43%
    08:00 +33°C° 0 mm 3 mps 751 mmHg 38%
    09:00 +34°C° 0 mm 3 mps 751 mmHg 33%
    10:00 +35°C° 0 mm 3 mps 751 mmHg 30%
    11:00 +36°C° 0 mm 4 mps 751 mmHg 27%
    12:00 +38°C° 0 mm 4 mps 751 mmHg 23%
    13:00 +39°C° 0 mm 5 mps 750 mmHg 23%
    14:00 +40°C° 0 mm 5 mps 750 mmHg 22%
    15:00 +40°C° 0 mm 5 mps 750 mmHg 21%
    16:00 +39°C° 0 mm 5 mps 750 mmHg 22%
    17:00 +39°C° 0 mm 5 mps 750 mmHg 23%
    18:00 +37°C° 0 mm 5 mps 750 mmHg 23%
    19:00 +36°C° 0 mm 4 mps 751 mmHg 25%
    20:00 +35°C° 0 mm 4 mps 751 mmHg 26%
    21:00 +35°C° 0 mm 3 mps 751 mmHg 27%
    22:00 +34°C° 0 mm 3 mps 751 mmHg 28%
    23:00 +33°C° 0 mm 3 mps 751 mmHg 30%

    28 July, Friday

    Time Temperature Precipitation Wind Pressure Humidity
    00:00 +32°C° 0 mm 2 mps 751 mmHg 31%
    01:00 +31°C° 0 mm 2 mps 751 mmHg 33%
    02:00 +31°C° 0 mm 2 mps 751 mmHg 34%
    03:00 +30°C° 0 mm 2 mps 751 mmHg 36%
    04:00 +30°C° 0 mm 2 mps 751 mmHg 36%
    05:00 +30°C° 0 mm 2 mps 751 mmHg 37%
    06:00 +30°C° 0 mm 2 mps 751 mmHg 37%
    07:00 +32°C° 0 mm 2 mps 752 mmHg 33%
    08:00 +34°C° 0 mm 2 mps 752 mmHg 30%
    09:00 +36°C° 0 mm 3 mps 752 mmHg 26%
    10:00 +37°C° 0 mm 3 mps 752 mmHg 23%
    11:00 +40°C° 0 mm 4 mps 752 mmHg 21%
    12:00 +41°C° 0 mm 4 mps 752 mmHg 18%
    13:00 +41°C° 0 mm 5 mps 752 mmHg 17%
    14:00 +42°C° 0 mm 6 mps 752 mmHg 17%
    15:00 +42°C° 0 mm 6 mps 751 mmHg 16%
    16:00 +42°C° 0 mm 6 mps 751 mmHg 17%
    17:00 +41°C° 0 mm 6 mps 751 mmHg 19%
    18:00 +40°C° 0 mm 7 mps 751 mmHg 20%
    19:00 +39°C° 0 mm 6 mps 752 mmHg 22%
    20:00 +38°C° 0 mm 6 mps 752 mmHg 24%
    21:00 +36°C° 0 mm 5 mps 752 mmHg 26%
    22:00 +35°C° 0 mm 4 mps 752 mmHg 27%
    23:00 +34°C° 0 mm 4 mps 752 mmHg 28%
    Show more